Regional Weather Roundup
Issued by NWS

Home | Current Version | Previous Version | Text Only | Print | Product List | Glossary Off
Versions: 1 2 3 4 5 6 7 8 9 10 11 12 13 14 15 16 17 18 19 20 21 22 23 24 25 26 27 28 29 30 31 32 33 34 35 36 37 38 39 40 41 42 43 44 45 46 47 48 49 50

000
ASUS43 KMPX 202101
RWRMN
WEATHER ROUNDUP FOR MINNESOTA
NATIONAL WEATHER SERVICE TWIN CITIES/CHANHASSEN MN
400 PM CDT FRI OCT 20 2017


NOTE: "FAIR" INDICATES FEW OR NO CLOUDS BELOW 12,000 FEET WITH NO
SIGNIFICANT WEATHER AND/OR OBSTRUCTIONS TO VISIBILITY. N/A MEANS
CURRENT SKY AND/OR WEATHER CONDITIONS ARE NOT AVAILABLE.

MNZ060>063-068>070-202200-
   Twin Cities Metro

CITY           SKY/WX    TMP DP  RH WIND       PRES   REMARKS
TWIN CITIES    PTSUNNY   77  49  37 S20G25    29.75F
ST PAUL        MOSUNNY   73  50  44 S13G25    29.76F
CRYSTAL        SUNNY     76  46  34 S21G30    29.73F
BLAINE         PTSUNNY   79  46  31 S21G28    29.74F
LAKEVILLE      MOSUNNY   75  48  38 S15G26    29.76F
EDEN PRAIRIE   MOSUNNY   78  49  35 S20G32    29.73F
SOUTH ST PAUL  MOSUNNY   76  45  33 S13G28    29.76F
LAKE ELMO      FAIR      75  50  41 S17       29.78F
$$
MNZ001>005-007-008-013>017-022>024-027-028-202200-
   Northwest Minnesota

CITY           SKY/WX    TMP DP  RH WIND       PRES   REMARKS
BEMIDJI        SUNNY     74  51  43 S23G29    29.55F
HALLOCK        SUNNY     79  48  34 S28G35    29.38F
ROSEAU         SUNNY     81  50  34 S24G35    29.44F
WARROAD        SUNNY     79  54  41 SE18      29.46F
CROOKSTON      SUNNY     75  52  43 S29G38    29.43F
FOSSTON        SUNNY     79  46  31 S28G33    29.49F
DETROIT LAKES  MOSUNNY   73  52  46 S20G29    29.54F
MOORHEAD       SUNNY     75  52  43 S24G35    29.47F
PARK RAPIDS    SUNNY     74  52  46 S20G38    29.58F
MAHNOMEN       FAIR      74  52  46 S18G32    29.49F
$$
MNZ006-009>011-018-025>026-202200-
   North Central Minnesota

CITY           SKY/WX    TMP DP  RH WIND       PRES   REMARKS
BAUDETTE       SUNNY     77  46  33 S18G33    29.52F
FLAG ISLAND    SUNNY     63  48  59 SE16      29.47F
INTL FALLS     SUNNY     78  43  28 S13G24    29.58F
WASKISH        SUNNY     77  48  36 S13G21    29.55F
BIG FORK       MOSUNNY   73  48  40 S13G23    29.63S
LONGVILLE      MOSUNNY   73  50  43 S17G24    29.63F
GRAND RAPIDS   MOSUNNY   74  50  42 S24G31    29.67F
CRANE LAKE     SUNNY     75  43  31 S12G21    29.66F
ORR            SUNNY     75  41  29 S15G24    29.63F
COOK           SUNNY     73  46  38 S12G21    29.67F
WALKER         FAIR      74  49  41 S22G31    29.58F
$$
MNZ012-019>021-037-202200-
   Northeast Minnesota

CITY           SKY/WX    TMP DP  RH WIND       PRES   REMARKS
DULUTH         MOSUNNY   73  47  39 SW20G30   29.74S
ELY            SUNNY     73  43  33 S10       29.71S
HIBBING        SUNNY     72  48  42 S9G18     29.68F
EVELETH        SUNNY     74  32  21 S12G20    29.71F
DULUTH HARBOR  MOSUNNY   57  54  88 N10       29.73F
TWO HARBORS    SUNNY     68  54  60 SE3       29.73F
SILVER BAY     SUNNY     70  50  49 S5        29.74S
GRAND MARAIS     N/A     53  47  79 NE3       29.77F
G MARAIS ARPRT SUNNY     64  45  48 S7        29.80F
$$
MNZ029>031-032-039>041-046>048-054>057-064-202200-
   West Central Minnesota

CITY           SKY/WX    TMP DP  RH WIND       PRES   REMARKS
FERGUS FALLS   SUNNY     75  54  46 S26G33    29.52F
WHEATON        SUNNY     77  52  41 SE22G32   29.53F
MORRIS         SUNNY     77  54  44 S28G35    29.56F
ALEXANDRIA     MOSUNNY   77  52  41 S18G33    29.61F
ELBOW LAKE     FAIR      75  55  50 S22G32    29.56F
WADENA         SUNNY     73  52  46 S25G35    29.59F
GLENWOOD       SUNNY     77  50  38 S30G38    29.62F
APPLETON       SUNNY     79  48  34 S15G29    29.57F
BENSON         SUNNY     79  52  38 S24G30    29.60F
ORTONVILLE     SUNNY     75  54  46 N18G26    29.55F
MADISON        SUNNY     79  54  41 S22G33    29.57F
WILLMAR        FAIR      81  52  36 S15G25    29.64F
$$
MNZ033>034-036-042>043-049>051-058-059-202200-
   Central Minnesota

CITY           SKY/WX    TMP DP  RH WIND       PRES   REMARKS
ST CLOUD       SUNNY     75  52  44 S23G33    29.68F
SAUK CENTRE    FAIR      76  53  44 S23G31    29.64F
PAYNESVILLE    SUNNY     77  52  41 S23G29    29.67S
AITKIN         SUNNY     72  48  43 S16G25    29.66F
PINE RIVER     SUNNY     72  52  49 S15G23    29.66F
BRAINERD       MOSUNNY   73  50  44 S22G37    29.65F
STAPLES        SUNNY     73  48  40 S15G21    29.62F
LONG PRAIRIE   FAIR      72  52  49 SE20G33   29.64F
LITTLE FALLS   MOSUNNY   75  37  25 S18G26    29.66F
LITCHFIELD     SUNNY     79  52  38 S10G20    29.68F
BUFFALO        SUNNY     76  46  34 S13G25    29.72F
MAPLE LAKE     SUNNY     78  53  41 S14G24    29.71F
HUTCHINSON     SUNNY     78  53  41 S15G25    29.70F
$$
MNZ037-044-045-052-053-202200-
   East Central Minnesota

CITY           SKY/WX    TMP DP  RH WIND       PRES   REMARKS
PRINCETON      SUNNY     79  50  36 S17G26    29.71F
MORA           SUNNY     73  46  38 S20G28    29.74S
CAMBRIDGE      MOSUNNY   77  55  47 S14       29.73F
RUSH CITY      SUNNY     75  48  38 S13G25    29.75S
MOOSE LAKE     MOSUNNY   73  46  38 S9G18     29.70F
HINCKLEY       FAIR      75  50  41 S20G29    29.74F
CLOQUET        MOSUNNY   73  43  33 S15G23    29.73F
MCGREGOR       SUNNY     75  46  35 S17G24    29.69F
$$
MNZ071>073-080-081-089-090-097-098-202200-
   Southwest Minnesota

CITY           SKY/WX    TMP DP  RH WIND       PRES   REMARKS
MONTEVIDEO     SUNNY     81  52  36 SW24G33   29.59F
GRANITE FALLS  SUNNY     80  54  41 S20G37    29.62F
CANBY          SUNNY     78  53  41 S28G41    29.58F
MARSHALL       SUNNY     77  54  44 S30G40    29.59F
REDWOOD FALLS  SUNNY     78  51  38 S29G37    29.65F
OLIVIA         SUNNY     77  52  41 S22G30    29.65F
PIPESTONE      SUNNY     72  52  49 S26G33    29.64F
WORTHINGTON    SUNNY     75  53  46 S22G36    29.69F
JACKSON        SUNNY     73  50  43 S24G32    29.74S
TRACY          SUNNY     77  55  46 S17G35    29.65S
SLAYTON        SUNNY     76  52  42 S26G33    29.67F
$$
MNZ065>067-074>077-082>085-091>093-202200-
   South Central Minnesota

CITY           SKY/WX    TMP DP  RH WIND       PRES   REMARKS
MANKATO        MOSUNNY   77  49  37 S18G26    29.74F
NEW ULM        SUNNY     75  46  35 S21G33    29.70F
ST JAMES       SUNNY     77  48  36 S29G36    29.72S
FAIRMONT       SUNNY     75  50  41 S30G38    29.72F
GLENCOE        SUNNY     78  50  37 S18G25    29.70F
FARIBAULT      MOSUNNY   75  46  35 SE14G23   29.78F
OWATONNA       PTSUNNY   75  48  38 S21G26    29.79F
WASECA         PTSUNNY   77  45  31 S15G26    29.79F
$$
MNZ078>079-086>088-094>096-202200-
   Southeast Minnesota

CITY           SKY/WX    TMP DP  RH WIND       PRES   REMARKS
ROCHESTER      MOSUNNY   74  45  35 S18G29    29.85F
RED WING       MOSUNNY   77  39  25 S12       29.79F
STANTON        MOSUNNY   75  47  36 S15G22    29.77F
DODGE CENTER   PTSUNNY   75  37  25 S25G32    29.82F
WINONA         CLOUDY    77  39  25 S7G18     29.86F
AUSTIN         PTSUNNY   73  43  33 S17G24    29.82F
PRESTON        MOSUNNY   73  44  36 S17G25    29.88S
$$
ABBREVIATIONS USED IN REMARKS
   TC - TEMPERATURES IN CELSIUS
  WCI - WIND CHILL INDEX
   HX - HEAT INDEX
  VSB - VISIBILITY
$$




USA.gov is the U.S. government's official web portal to all federal, state and local government web resources and services.